Home   Weather   Munich   Past weeks

Flag for Germany Past Weather in Munich, Bavaria, Germany — Yesterday and Last 2 Weeks

Now
45 °F

Partly cloudy.


Feels Like: 36 °F
Forecast: 33 / 44 °F
Wind: 22 mph from West

Location: Munich / Franz Josef Strauss Airport

Current Time: Feb 24, 2017 at 4:40:17 am

Latest Report: Feb 24, 2017 at 3:50 am


Visibility: N/A

Pressure: 29.62 "Hg (27.78 "Hg at 526m altitude)

Humidity: 61%

Dew Point: 32 °F

Location of MunichLocation

Past Weather in Munich — Graph

°F

Munich Temperature Yesterday

Maximum temperature yesterday: 64 °F (at 1:50 pm)
Minimum temperature yesterday: 45 °F (at 5:20 am)
Average temperature yesterday: 54 °F

High & Low Weather Summary for the Past Weeks

 TemperatureHumidityPressure
High64 °F (Feb 23, 1:50 pm)100% (Feb 11, 4:50 am)30.57 "Hg (Feb 11, 4:50 am)
Low21 °F (Feb 11, 5:50 am)24% (Feb 23, 1:50 pm)29.50 "Hg (Feb 23, 4:50 pm)
Average37 °F81%30.19 "Hg
* Reported Feb 9 3:20 am — Feb 24 3:20 am, Munich, Weather by CustomWeather, © 2017

Note: Actual official high and low records may vary slightly from our data, if they occured in-between our weather recording intervals... More about our weather records

Advertising

Munich Weather History for the Previous 24 Hours

Scroll right to see more
 ConditionsComfort  
Time TempWeatherWind HumidityBarometerVisibility
3:20 am
Fri, Feb 24
45 °FLight rain. Partly cloudy.26 mph61%29.62 "HgN/A
2:50 am45 °FLight rain. Passing clouds.20 mph66%29.59 "HgN/A
2:20 am45 °FLight rain. Passing clouds.23 mph66%29.59 "HgN/A
1:50 am45 °FLight rain. Passing clouds.24 mph71%29.59 "HgN/A
1:20 am48 °FPartly cloudy.21 mph66%29.56 "HgN/A
12:50 am54 °FClear.29 mph51%29.53 "Hg10 mi
12:20 am54 °FClear.26 mph51%29.53 "Hg10 mi
11:50 pm
Thu, Feb 23
54 °FClear.20 mph47%29.53 "Hg10 mi
11:20 pm54 °FClear.22 mph44%29.53 "Hg10 mi
10:50 pm55 °FClear.28 mph38%29.53 "Hg10 mi
10:20 pm57 °FClear.26 mph36%29.53 "Hg10 mi
9:50 pm55 °FClear.22 mph36%29.50 "Hg10 mi
9:20 pm55 °FClear.18 mph36%29.50 "Hg10 mi
8:50 pm57 °FClear.20 mph33%29.50 "Hg10 mi
8:20 pm57 °FClear.20 mph31%29.50 "Hg10 mi
7:50 pm57 °FClear.15 mph31%29.50 "Hg10 mi
7:20 pm57 °FClear.20 mph31%29.50 "Hg10 mi
6:50 pm59 °FClear.18 mph29%29.50 "Hg10 mi
6:20 pm61 °FClear.20 mph27%29.50 "Hg10 mi
5:50 pm59 °FClear.21 mph31%29.50 "Hg10 mi
5:20 pm61 °FSunny.24 mph29%29.50 "Hg10 mi
4:50 pm61 °FSunny.25 mph27%29.50 "Hg10 mi
4:20 pm61 °FSunny.26 mph29%29.53 "Hg10 mi
3:50 pm63 °FSunny.24 mph27%29.53 "Hg10 mi
3:20 pm63 °FSunny.28 mph27%29.56 "Hg10 mi
2:50 pm63 °FSunny.33 mph27%29.56 "Hg10 mi
2:20 pm64 °FSunny.31 mph26%29.59 "Hg10 mi
1:50 pm64 °FSunny.26 mph24%29.62 "Hg10 mi
1:20 pm63 °FSunny.24 mph27%29.65 "Hg10 mi
12:50 pm63 °FSunny.21 mph30%29.65 "Hg10 mi
12:20 pm63 °FSunny.20 mph32%29.68 "Hg10 mi
11:50 am63 °FSunny.21 mph30%29.68 "Hg10 mi
11:20 am63 °FSunny.21 mph32%29.71 "Hg10 mi
10:50 am57 °FSunny.10 mph44%29.74 "Hg10 mi
10:20 am54 °FPassing clouds.9 mph51%29.74 "HgN/A
9:50 am52 °FSunny.12 mph58%29.77 "Hg10 mi
9:20 am50 °FSunny.13 mph62%29.77 "Hg10 mi
8:50 am48 °FSunny.14 mph62%29.77 "Hg10 mi
8:20 am46 °FSunny.14 mph66%29.80 "Hg10 mi
7:50 am45 °FSunny.14 mph76%29.80 "Hg10 mi
7:20 am45 °FSunny.15 mph76%29.80 "Hg10 mi
6:50 am45 °FClear.13 mph76%29.80 "Hg10 mi
6:20 am45 °FClear.16 mph76%29.80 "Hg10 mi
5:50 am45 °FClear.14 mph76%29.83 "Hg10 mi
5:20 am45 °FClear.14 mph71%29.83 "Hg10 mi
4:50 am46 °FClear.15 mph71%29.83 "Hg10 mi
4:20 am46 °FClear.13 mph71%29.83 "Hg10 mi
Weather by CustomWeather, © 2017

See weather overviewHow to use our weather pages